Theta_e
319 318 318 319 318 319 319 319 320 320 321 318 319 318 317 321 320 321 319 322 329 335 343 344 341 342 344 344 345 348 348 352 355 352 352 352 348 350 344 333 328 324 325 323 317 314 313 313 314 315 316 317 318 319 318 317 317 318 320 320 322 324 326 329 329 329 330 332 333 334 335 335 333 333 334 334 335 334 334 334 334 331 322 314 314 312 315 322 326 327 327 325 323 320 317 316 316
318 318 318 318 318 319 319 319 322 321 321 317 317 319 318 320 319 320 320 322 332 339 343 342 343 344 344 343 343 345 345 347 348 347 348 348 348 349 340 331 330 327 326 322 317 314 313 314 314 315 316 317 318 319 318 317 317 318 320 320 322 324 326 328 328 329 331 333 334 335 335 335 335 335 334 335 335 335 335 335 334 331 319 312 314 314 313 318 324 326 324 322 319 316 316 316 318
317 318 317 318 318 319 319 320 322 320 317 316 317 320 319 319 319 320 320 320 327 338 340 337 341 344 344 344 342 345 348 347 347 345 346 348 349 346 340 334 334 331 326 322 317 313 313 314 314 316 316 318 318 319 318 316 317 318 320 321 323 325 326 327 327 330 332 333 334 335 335 335 336 335 335 335 335 335 334 333 332 328 318 312 314 314 311 314 320 323 322 319 316 315 317 319 319
317 317 317 317 318 318 322 322 325 321 317 318 317 320 322 320 320 319 319 318 322 330 331 330 339 343 344 347 344 346 347 347 348 346 346 348 348 346 342 339 337 334 330 324 318 314 313 314 315 316 317 318 318 318 318 316 317 318 320 322 324 325 326 327 328 331 332 333 334 335 335 335 336 335 335 335 334 334 333 332 331 326 317 312 314 313 310 311 317 321 320 317 314 316 319 320 320
316 316 315 317 318 318 321 320 322 319 317 321 317 319 323 319 319 319 319 319 321 324 322 324 340 346 344 345 345 347 348 347 348 346 346 348 348 347 344 341 339 337 333 326 318 314 313 314 315 316 317 317 318 318 317 316 317 318 320 322 324 325 326 327 329 331 332 333 334 334 334 334 335 334 334 334 333 332 331 331 328 323 315 312 313 312 309 309 314 319 318 315 313 318 320 321 321
315 316 315 316 318 317 319 318 317 317 318 322 318 319 321 319 318 318 318 320 319 319 319 323 340 346 344 345 345 347 348 347 348 346 345 348 348 347 345 343 341 338 334 327 318 314 313 314 315 316 317 317 318 318 317 316 317 318 320 322 323 324 326 327 329 331 332 333 334 334 334 334 333 332 332 332 331 329 328 326 322 316 311 312 313 311 309 308 312 315 316 313 312 317 320 321 321
315 315 316 319 319 317 321 320 317 318 318 318 319 319 319 318 317 317 317 319 318 320 326 328 337 345 346 346 348 349 348 349 348 345 345 348 348 346 344 343 341 338 332 326 318 314 313 314 316 317 318 318 318 318 317 316 317 318 320 322 323 324 325 326 329 331 333 333 333 334 333 333 332 330 329 329 327 325 322 318 314 311 310 313 313 310 309 308 310 312 313 311 312 318 321 321 322
315 316 316 320 321 318 321 321 318 318 317 316 317 318 318 318 317 318 318 318 318 320 329 333 336 345 349 346 349 350 348 349 348 345 346 348 348 346 344 342 341 336 331 326 318 313 313 315 317 317 318 318 318 319 318 317 317 318 319 321 322 324 325 327 329 331 333 333 333 333 333 333 331 329 328 326 323 318 314 311 309 308 310 313 312 309 309 308 309 310 310 310 312 318 321 322 323
314 316 316 319 320 318 318 318 317 316 318 317 316 317 317 318 317 318 318 318 318 318 326 331 336 343 347 348 350 349 348 349 348 347 347 348 348 346 344 342 342 339 332 326 319 313 314 315 317 317 318 318 319 319 318 317 317 318 319 321 322 324 326 328 330 331 332 332 332 332 333 332 330 328 326 324 320 313 309 308 308 307 310 313 311 309 309 308 308 309 309 309 311 317 320 322 324
314 316 317 318 318 316 315 316 317 316 318 317 316 317 317 318 317 317 317 317 317 317 323 330 337 342 347 350 350 348 348 349 348 348 348 348 348 347 344 342 342 341 334 326 318 313 313 316 317 318 318 319 319 319 318 317 317 317 318 321 322 324 327 330 330 332 332 332 331 332 332 331 329 327 325 323 318 311 308 308 307 308 311 313 310 309 310 309 309 308 308 309 311 316 320 323 325
316 316 315 317 316 315 315 315 316 316 317 315 315 316 317 318 316 316 316 317 317 316 323 338 344 345 349 350 348 347 348 349 349 348 347 348 347 346 343 339 338 340 335 325 317 314 313 315 317 317 319 319 319 319 319 318 317 317 319 321 322 325 329 331 331 332 332 331 331 332 331 330 327 325 323 321 316 309 308 308 307 308 312 312 310 310 310 309 309 308 309 309 311 315 320 323 325
317 317 317 319 317 316 315 315 315 316 315 315 315 316 318 317 316 316 316 316 315 315 320 336 342 346 351 350 347 346 347 347 348 347 347 347 346 343 341 338 337 336 332 325 317 314 313 314 316 317 318 319 319 319 320 319 318 318 320 321 323 327 331 332 332 332 331 331 331 331 329 328 325 323 322 319 314 308 308 308 308 309 312 312 310 310 311 310 310 309 309 309 311 314 318 322 324
317 317 318 320 319 317 316 315 317 318 317 316 316 316 318 316 316 316 316 316 315 315 315 327 338 346 351 350 346 345 345 345 346 347 347 347 345 341 339 337 336 333 328 324 317 313 313 314 315 317 318 319 319 319 320 321 321 321 321 323 326 330 332 332 332 331 331 330 329 328 326 324 321 319 319 317 312 308 308 308 308 309 311 311 310 311 311 311 311 310 310 309 310 312 316 320 323
316 315 317 319 317 317 316 315 317 317 316 317 315 316 318 315 316 316 316 315 314 318 318 329 340 347 350 349 347 344 344 345 345 346 346 346 343 340 338 335 334 330 325 320 316 313 313 314 315 316 318 319 319 320 322 323 324 324 325 327 330 332 332 332 332 331 330 329 327 324 321 318 315 315 316 314 310 308 308 309 309 309 311 310 310 311 311 311 311 311 311 310 310 312 315 318 321
315 315 317 319 317 316 315 315 316 314 315 316 315 316 316 315 317 316 316 315 319 327 331 339 342 346 352 349 348 346 345 344 345 346 345 344 341 339 336 333 332 329 324 319 315 313 312 314 315 316 318 319 319 322 325 326 327 328 329 331 332 332 332 332 331 329 328 327 323 319 317 316 314 313 314 312 309 308 308 309 310 310 311 310 310 311 311 311 311 311 311 311 311 312 314 317 320
314 315 317 318 317 315 314 315 315 314 316 317 316 317 315 317 317 316 318 315 327 339 338 343 343 342 348 347 346 347 346 344 345 345 344 342 338 336 334 333 332 329 325 320 315 313 312 313 314 316 317 318 320 323 326 328 329 330 331 332 333 333 333 332 330 328 327 324 320 320 322 319 314 312 312 310 308 308 308 309 310 310 311 311 311 311 311 311 311 311 311 311 311 311 313 316 319
313 315 316 317 317 315 314 315 315 316 318 317 316 316 315 317 317 319 327 325 335 345 342 344 344 341 346 346 345 347 346 345 344 345 344 342 336 334 332 332 332 329 326 321 316 313 313 313 314 316 317 318 321 325 327 328 330 331 331 332 333 332 333 332 329 327 324 321 321 325 327 321 313 311 311 309 308 308 308 308 310 311 311 311 312 312 312 312 312 312 312 311 311 311 312 313 316
314 317 317 315 316 314 315 316 315 316 318 317 316 315 315 317 317 319 333 341 343 347 346 346 346 345 347 349 347 347 346 344 345 345 346 342 336 333 331 331 332 331 329 326 320 316 313 314 316 316 317 318 322 326 328 329 330 331 331 332 332 332 331 330 328 325 322 323 327 329 328 323 314 311 311 311 310 308 308 308 309 311 312 313 313 314 314 314 314 313 313 313 313 312 312 313 313
314 317 316 313 315 314 314 315 314 315 316 316 315 315 315 316 318 315 327 344 348 352 351 348 349 349 348 349 347 346 344 344 345 346 346 342 336 334 332 332 334 334 333 330 325 319 314 314 316 316 317 318 323 326 327 328 329 330 330 330 330 330 329 328 326 323 324 330 332 330 328 324 318 317 317 317 315 311 309 309 309 310 312 314 314 315 316 316 316 316 316 316 316 315 315 316 316
314 316 316 314 314 314 314 315 314 315 316 314 314 315 316 316 318 315 324 340 349 354 352 349 349 349 348 347 346 345 344 344 344 344 343 340 335 335 337 337 338 338 336 331 326 321 316 314 315 316 316 317 321 325 325 327 328 330 330 329 330 329 327 327 324 323 329 335 334 331 328 325 324 324 323 322 321 318 313 310 309 309 311 313 315 316 316 317 318 318 318 317 318 319 319 320 321
315 315 316 315 314 314 314 315 315 316 316 314 314 314 316 316 317 323 326 337 352 352 348 349 349 348 348 347 346 345 344 343 343 343 340 337 334 334 339 342 341 340 337 333 329 325 322 319 316 315 316 316 318 321 324 327 329 330 330 330 330 328 327 325 323 326 333 336 333 331 328 326 326 326 325 323 323 323 321 317 313 311 311 313 314 315 315 315 316 316 317 317 316 319 323 326 327
316 315 315 314 312 314 314 315 315 316 315 314 314 314 317 315 321 334 331 331 347 348 346 348 347 348 348 347 346 345 345 344 343 341 337 337 338 338 340 342 341 340 337 334 331 329 327 324 320 318 317 316 316 319 322 326 328 328 330 331 331 329 326 324 326 331 335 335 333 331 329 326 324 324 324 324 326 327 327 325 323 320 318 318 318 318 318 317 318 319 320 320 318 319 324 326 327
316 316 315 315 314 314 315 315 315 315 315 313 314 314 316 315 322 337 339 336 340 342 346 348 346 347 347 347 346 345 344 343 342 340 339 339 341 343 343 343 342 340 338 335 333 331 330 329 325 322 321 318 316 318 321 322 324 327 330 330 330 328 325 325 330 334 335 335 332 331 330 326 321 322 324 326 330 331 330 330 330 329 328 327 326 327 327 327 326 327 327 327 326 326 327 327 327
315 316 314 315 316 314 315 316 315 316 315 313 315 315 316 315 318 331 343 345 343 344 348 348 348 348 348 347 346 345 344 342 342 342 342 338 338 342 343 343 342 340 338 335 334 333 331 331 329 326 324 321 318 317 318 320 324 328 330 328 327 326 325 328 333 334 335 335 332 330 329 325 320 323 328 330 331 332 332 331 331 332 332 332 332 331 332 331 331 332 332 331 331 331 331 331 331
314 315 314 315 316 315 317 316 316 316 315 314 315 315 315 315 316 333 347 348 346 347 350 349 349 348 347 347 346 345 344 342 343 343 340 335 337 340 341 341 340 338 337 335 334 332 332 332 331 329 327 324 320 317 317 321 326 328 328 327 325 326 326 330 333 334 335 335 333 329 326 324 320 324 330 331 332 333 332 332 332 332 333 333 333 333 333 333 332 332 332 332 332 332 331 331 332
314 314 314 315 315 316 316 316 317 316 316 315 315 315 316 319 323 338 348 348 348 349 349 349 349 347 346 346 345 345 344 343 344 342 336 337 341 342 340 340 338 335 333 334 333 332 333 333 332 331 330 328 323 316 317 323 326 326 326 325 326 328 330 333 334 334 336 335 333 330 327 324 321 325 331 332 333 334 333 333 333 333 333 333 333 333 333 333 333 333 333 332 332 331 331 331 331
313 314 314 314 315 315 315 315 316 316 317 315 316 316 314 322 327 336 346 348 348 349 348 348 347 346 345 344 344 344 344 345 345 341 334 338 343 343 341 340 337 333 333 333 333 333 335 335 334 333 332 331 325 317 317 322 325 325 325 327 331 333 335 336 335 335 336 334 334 332 328 327 325 325 331 334 334 334 335 334 334 333 333 333 334 334 333 334 333 333 332 332 332 331 331 331 330
312 313 313 314 314 314 314 314 314 315 316 314 317 316 314 325 329 334 346 348 347 348 346 346 346 344 344 343 343 344 345 346 345 341 335 338 342 342 341 340 337 335 335 335 335 336 336 336 336 335 335 333 326 318 317 321 323 324 327 331 334 336 336 336 335 335 334 332 332 331 329 329 328 327 332 335 334 335 335 335 334 333 334 333 334 334 334 334 333 332 332 332 332 331 331 331 330
311 311 312 313 313 314 314 313 314 313 315 315 316 315 314 323 329 337 347 348 346 346 344 344 343 342 343 342 343 344 345 345 345 342 338 339 342 342 342 341 339 337 337 337 337 337 337 338 337 337 336 334 329 322 319 322 323 325 329 333 334 335 335 335 334 334 331 331 331 331 330 330 329 329 334 335 335 335 335 334 333 333 334 334 334 334 334 333 333 333 333 332 331 331 331 331 331
311 312 311 312 312 313 313 313 314 313 314 315 314 316 316 320 330 340 347 346 345 345 344 343 341 341 342 341 342 343 343 344 344 343 340 340 341 342 342 342 341 338 338 338 337 337 339 338 337 337 336 335 332 324 322 325 324 327 331 333 333 333 334 334 334 333 331 332 332 331 329 328 329 331 334 336 335 335 334 333 332 333 334 333 334 334 333 333 333 333 332 331 330 330 330 329 329
312 312 312 313 313 312 313 312 313 313 314 315 315 315 316 325 337 343 347 345 345 343 343 343 341 340 341 341 341 342 342 342 344 343 342 341 342 343 342 342 342 339 338 337 336 337 339 338 337 336 335 333 329 324 324 327 327 329 331 332 333 333 333 333 333 333 333 333 332 332 331 330 332 334 335 335 334 334 334 333 333 333 334 333 333 333 333 332 333 333 331 330 330 329 329 328 328
312 312 312 311 312 313 313 312 313 314 313 314 314 314 319 334 340 342 345 344 344 342 342 342 341 340 340 340 340 341 342 341 342 342 342 341 342 343 342 342 342 340 339 337 336 338 338 337 336 334 332 330 327 324 325 328 328 328 329 331 333 333 333 333 333 334 334 333 332 334 336 335 335 335 335 334 333 334 334 333 333 333 334 334 333 332 332 332 332 332 329 329 329 328 328 327 328
312 311 313 312 311 312 313 312 312 313 314 314 313 322 338 344 339 340 344 344 343 342 341 340 339 339 339 340 339 341 342 342 341 341 341 341 342 343 343 343 342 341 341 338 338 338 338 337 335 334 333 331 329 327 326 328 329 329 329 330 332 333 333 333 334 334 335 333 332 334 336 336 335 335 334 333 333 334 334 334 334 334 334 333 332 331 331 331 331 330 328 329 329 329 327 327 327
312 311 312 313 311 311 312 313 312 312 314 315 313 328 351 349 338 340 343 343 342 341 341 339 339 338 339 339 339 341 342 342 342 341 341 340 342 343 343 343 342 342 341 339 338 338 338 337 335 334 333 333 333 331 331 332 332 332 332 332 333 334 334 334 335 335 334 333 333 335 336 335 335 334 333 333 333 334 334 334 335 334 333 332 332 332 331 330 329 329 329 329 330 329 328 327 327
312 312 313 313 311 311 312 312 314 313 312 316 314 323 344 344 338 340 341 342 341 340 340 338 338 338 338 338 339 341 342 342 342 342 341 340 341 342 341 342 341 341 341 339 339 338 337 336 335 334 334 334 335 334 334 334 335 334 334 334 334 334 334 335 334 334 334 334 335 336 335 335 334 333 332 333 333 333 334 334 334 333 332 332 332 332 331 330 329 329 330 330 330 329 328 328 327
313 314 315 314 311 312 312 312 315 313 312 316 314 324 342 343 339 339 339 340 340 340 339 338 338 338 338 339 339 340 341 341 341 341 340 340 341 341 341 341 341 341 340 339 339 337 337 336 335 335 334 334 335 335 335 335 335 335 334 334 334 334 335 334 333 334 335 335 336 335 334 334 333 332 332 332 332 332 332 333 333 333 332 332 332 332 331 330 330 330 330 331 330 329 329 328 328
311 313 314 313 312 313 312 313 314 313 314 313 315 334 345 341 340 339 338 339 339 339 338 337 338 338 338 338 338 339 339 339 339 339 340 341 340 340 341 341 340 340 339 338 338 336 336 336 335 335 335 335 335 335 334 334 334 333 333 333 333 334 334 333 333 335 336 336 335 335 334 334 333 333 333 332 332 331 331 332 333 332 332 332 332 332 330 330 331 331 331 330 330 329 328 328 328
309 311 313 312 312 312 313 314 313 314 315 313 322 343 345 339 340 338 337 339 339 339 338 337 338 338 338 338 338 338 338 338 338 338 339 340 340 340 340 340 339 339 338 337 337 336 335 335 334 335 335 335 335 334 334 334 333 332 331 332 333 333 334 334 335 336 336 335 335 335 334 333 334 334 333 333 332 332 331 332 332 332 332 332 331 331 330 331 331 331 331 330 329 328 328 328 328
309 310 312 312 312 312 313 314 314 314 313 317 331 346 343 339 340 336 337 338 338 339 338 338 338 338 338 338 338 337 337 337 337 338 339 339 340 340 340 340 339 338 337 336 335 335 335 334 333 334 335 335 335 334 334 334 333 332 332 333 333 334 335 336 336 336 336 335 335 335 334 333 334 333 332 332 332 332 332 332 332 332 332 331 331 331 331 332 331 331 330 329 329 329 329 328 328
310 310 312 314 313 312 312 313 314 313 315 325 337 345 343 340 340 337 337 337 337 339 338 337 338 338 338 338 338 337 337 337 336 337 337 338 339 339 339 339 338 337 336 335 335 334 333 332 332 333 334 334 334 335 335 334 333 333 334 335 335 335 336 336 336 336 336 335 335 335 334 334 333 332 331 331 332 332 332 332 332 332 331 331 331 332 332 331 331 330 329 328 328 328 328 328 327
310 310 311 313 312 312 314 314 314 313 318 331 340 343 344 343 342 341 339 337 337 337 337 337 337 338 338 338 337 337 336 336 336 336 337 338 339 339 339 338 338 337 335 334 334 333 331 330 332 333 334 335 335 335 335 334 334 335 335 336 337 336 336 336 335 336 335 335 335 334 334 333 333 332 332 332 332 332 332 332 332 332 331 331 331 331 331 331 329 328 326 325 325 325 326 326 325
310 310 310 312 312 313 313 313 314 312 315 326 336 340 344 343 342 341 340 339 338 337 337 337 338 338 337 337 337 336 336 336 336 336 336 338 339 339 338 338 337 336 335 334 333 332 331 330 332 333 334 335 336 335 335 336 336 336 336 336 336 336 336 336 335 335 335 335 334 333 333 333 332 333 333 333 333 332 332 332 331 331 331 330 330 329 329 329 328 327 325 324 322 321 321 320 320
311 311 310 311 312 312 312 312 314 315 314 318 323 332 341 341 339 338 338 341 340 337 338 337 338 338 337 337 336 336 336 336 336 336 336 338 338 338 338 337 337 336 335 334 333 333 332 331 332 332 334 336 336 336 336 336 336 336 336 336 336 335 335 335 335 334 334 334 334 333 333 332 332 332 333 333 333 332 331 331 330 330 330 329 328 327 326 326 325 325 323 320 318 316 316 315 316
311 312 310 311 312 312 312 311 314 317 316 317 320 329 340 341 337 334 335 341 341 338 339 338 338 338 337 337 336 336 336 336 336 336 336 337 337 338 337 337 337 336 335 334 333 333 333 332 332 332 334 335 336 336 336 335 335 336 336 335 335 335 334 334 334 334 333 333 333 333 332 332 332 332 332 332 332 331 330 330 329 329 328 327 326 325 323 323 322 321 318 316 315 314 314 314 313
311 313 312 311 311 312 313 312 313 315 314 317 322 327 336 340 336 332 332 338 343 341 338 338 338 338 338 337 336 337 337 337 337 337 336 336 337 337 338 337 337 336 335 334 334 334 334 334 333 334 335 335 335 336 336 335 335 336 335 335 335 335 335 333 333 333 332 332 332 332 332 332 332 332 331 331 330 330 329 329 328 327 326 325 323 321 320 319 318 316 315 314 314 313 312 312 311
311 313 313 311 311 312 312 313 313 314 313 315 319 323 332 339 336 332 331 336 341 342 338 337 338 338 338 337 336 337 338 338 338 337 337 336 336 337 337 337 336 336 335 335 335 335 335 335 334 335 336 335 333 334 335 335 335 336 335 335 335 335 335 333 333 332 331 332 332 332 332 332 332 331 331 330 330 329 328 327 326 325 324 322 319 318 316 315 315 314 313 312 312 311 310 310 309
311 312 311 311 315 316 315 318 316 314 314 313 316 324 328 334 336 332 332 335 338 340 339 338 338 338 338 337 337 337 338 339 338 337 336 336 336 336 336 336 336 336 336 335 336 336 335 335 335 335 335 335 334 334 334 334 335 336 336 335 335 334 334 333 332 331 331 331 330 331 332 332 331 330 330 330 329 328 326 325 324 322 321 318 316 315 314 314 313 312 311 310 309 309 308 307 306
311 311 311 312 316 316 314 317 316 313 315 313 315 325 326 328 335 333 331 333 335 338 339 338 338 339 338 337 337 337 338 338 337 337 337 336 336 335 335 335 335 336 336 336 336 335 334 335 335 335 335 335 334 334 334 334 335 336 335 335 335 334 333 333 332 332 331 331 330 331 331 331 330 329 328 328 327 325 323 322 321 319 317 315 315 314 313 312 311 310 309 308 307 307 305 304 303
310 311 313 312 313 314 312 314 316 315 318 317 316 323 326 327 333 333 331 332 334 337 338 337 338 338 338 337 337 337 337 337 337 337 337 336 335 335 335 335 335 335 335 335 336 334 334 335 335 335 335 335 335 335 334 334 335 336 335 335 335 334 333 333 332 332 331 331 331 331 330 329 328 328 327 326 324 322 321 319 317 316 315 314 313 312 311 310 309 308 307 306 305 304 303 302 301
309 310 312 312 312 313 313 313 315 316 318 319 318 320 325 327 330 332 332 332 332 335 336 337 338 338 337 337 337 337 337 336 337 337 337 337 335 335 335 335 335 334 334 334 335 335 335 335 336 335 335 334 335 335 334 334 335 336 335 335 334 334 333 333 332 332 331 331 331 330 329 328 327 326 324 323 321 319 317 316 315 314 313 312 311 310 309 308 307 306 305 303 302 301 300 300 299
309 310 311 313 313 314 315 315 316 318 318 317 317 323 327 326 328 333 332 330 330 333 336 337 337 337 337 336 336 337 336 336 337 337 337 336 335 336 335 335 335 334 334 334 335 335 335 335 336 335 334 334 334 334 335 335 335 334 334 334 334 334 334 333 332 332 331 331 330 329 328 326 325 324 323 321 318 316 315 314 313 312 312 310 309 308 307 306 304 303 302 301 300 300 300 299 299
309 310 311 312 315 317 317 319 323 324 319 317 319 327 329 327 331 333 330 331 333 334 336 336 336 336 336 336 336 336 336 336 336 336 336 335 335 336 335 336 335 334 334 334 334 334 334 334 335 335 334 333 333 334 335 334 333 333 333 333 333 334 333 333 332 331 330 329 328 327 326 324 323 323 322 319 316 314 313 312 311 311 310 308 307 306 304 303 302 301 300 299 299 299 299 298 298
311 309 310 311 313 316 315 317 321 320 318 320 324 329 332 329 332 334 331 334 337 336 334 334 335 336 336 336 336 336 336 336 336 336 335 334 334 335 336 335 334 334 335 334 334 335 335 334 333 333 334 333 333 334 334 334 333 332 333 333 333 333 333 332 331 330 329 328 326 325 324 323 322 322 320 316 314 312 311 310 310 309 308 306 305 303 302 301 299 299 299 298 299 299 298 297 297
311 309 310 312 312 317 322 321 319 317 320 324 325 331 335 330 329 333 335 336 337 336 334 334 334 336 336 336 335 335 335 335 335 335 334 334 334 335 335 335 335 335 334 334 334 335 335 333 332 332 333 333 333 333 333 333 332 332 332 332 332 332 331 330 329 328 328 326 325 323 322 322 321 320 317 314 312 311 310 309 308 307 305 304 302 300 299 299 298 298 298 298 298 298 297 297 297
311 310 311 314 314 315 320 322 320 319 321 319 320 328 333 330 332 335 336 336 336 335 334 334 335 336 336 336 335 335 335 334 333 333 334 334 334 334 335 335 335 334 334 334 335 335 333 331 331 331 332 332 331 331 331 331 332 332 331 331 331 330 330 329 328 327 326 325 324 323 321 321 320 318 314 312 311 310 309 308 306 304 302 300 299 298 298 298 298 298 297 297 298 297 297 297 296
310 310 310 315 318 314 314 319 321 320 322 322 320 326 333 334 335 335 335 335 335 334 334 334 335 336 336 336 335 335 334 334 334 333 334 334 335 334 334 334 334 334 334 334 333 332 331 331 331 331 332 331 330 330 330 331 331 331 331 330 330 329 328 327 327 326 325 324 323 322 321 320 319 316 313 311 309 309 307 305 303 301 299 298 297 297 298 298 297 297 297 297 297 297 296 296 296
309 311 312 312 312 313 315 317 317 318 325 328 325 329 338 339 334 332 334 334 333 334 333 333 334 335 336 336 335 335 335 334 334 334 334 334 335 333 333 333 333 334 334 333 331 331 331 332 331 332 331 330 330 330 331 331 331 330 330 329 328 327 326 326 325 324 324 323 322 321 320 319 317 314 311 309 308 306 305 302 300 298 297 297 297 297 297 297 297 297 297 297 296 296 296 296 296
311 313 315 313 311 315 317 314 316 319 323 327 328 330 338 340 333 330 333 333 333 333 332 332 334 335 336 336 335 335 335 334 334 334 334 334 334 333 332 333 333 333 334 332 331 331 331 331 331 331 330 330 329 329 329 329 329 328 328 327 327 326 325 324 324 323 323 322 321 320 319 317 315 313 310 307 305 303 301 299 298 297 297 296 297 297 297 297 297 297 297 297 296 296 296 296 296
Wind_Speed
12 11 12 11 12 10 8 9 4 1 3 1 3 3 3 1 1 6 7 9 5 6 9 6 6 7 3 3 7 2 2 5 3 3 3 3 11 23 26 23 26 28 27 27 25 24 23 21 20 20 20 20 20 19 18 18 17 17 16 16 16 15 15 15 14 14 13 12 12 12 11 11 11 10 10 9 8 8 8 8 8 9 10 10 11 11 12 13 13 13 13 15 15 14 14 14 16
13 11 11 11 11 9 5 6 2 2 4 2 3 2 3 2 3 7 6 4 2 2 8 7 7 6 3 3 5 2 2 1 1 5 6 10 20 25 25 24 25 24 24 24 24 24 23 22 21 21 21 21 20 20 18 18 18 17 17 16 16 15 15 15 14 14 13 12 11 12 11 10 10 10 9 9 8 8 8 8 7 7 9 10 11 11 12 13 13 14 14 15 15 14 15 16 17
13 12 11 10 8 6 3 4 1 1 3 3 4 3 3 3 3 6 8 5 6 4 4 4 2 3 4 3 1 1 4 2 1 5 9 17 24 27 26 24 23 22 22 21 21 22 23 22 21 22 22 21 21 20 19 19 18 18 17 16 16 15 15 14 14 13 12 12 12 11 11 10 10 10 9 8 8 8 8 7 6 5 8 10 10 11 12 14 14 14 15 15 15 15 16 17 18
12 12 10 8 5 4 3 3 1 4 2 3 4 4 3 4 6 6 13 15 10 9 8 6 4 3 2 1 2 2 2 3 3 5 11 20 23 28 27 24 24 22 21 20 20 20 21 22 22 22 22 22 21 21 20 19 19 18 18 16 16 15 15 14 14 13 12 12 12 11 10 10 10 9 8 8 7 7 6 6 5 4 7 9 10 11 12 14 15 15 15 15 15 17 18 18 17
12 11 9 6 4 1 3 2 2 4 3 4 3 5 4 5 7 7 17 23 12 10 13 10 5 4 4 2 2 2 1 1 4 6 12 21 23 27 28 25 24 21 21 20 20 21 20 21 21 23 23 23 22 21 20 20 20 19 18 17 16 16 15 14 13 13 12 12 12 11 10 10 9 9 8 7 6 5 5 4 4 4 7 8 10 11 12 14 15 15 15 15 16 17 18 17 16
10 8 6 4 1 2 3 1 2 2 5 5 3 6 6 7 8 10 19 28 20 9 11 13 7 2 2 2 2 1 2 1 4 10 13 22 25 26 27 25 23 21 21 20 21 22 21 21 21 23 23 23 23 22 21 21 20 19 18 17 16 16 15 14 13 13 12 12 12 11 10 10 9 8 7 6 5 5 4 3 3 4 6 8 10 11 13 14 15 14 14 14 16 17 17 16 15
7 5 3 0 1 2 3 3 5 4 5 5 4 7 7 9 13 13 15 20 17 5 2 9 9 3 1 3 2 3 3 4 3 10 15 22 25 25 26 25 23 21 21 21 21 22 22 22 22 23 24 23 23 23 22 21 21 20 19 18 17 16 15 14 13 13 13 12 11 11 10 9 8 7 6 6 5 4 3 3 3 5 6 8 10 12 13 15 15 15 14 14 16 17 16 16 14
6 3 1 3 1 2 3 3 4 4 4 4 5 9 10 15 18 12 10 11 12 5 1 7 9 5 1 4 2 2 1 3 2 9 16 22 26 26 26 25 23 22 21 21 21 22 23 23 23 23 24 24 23 23 22 22 21 20 19 18 17 16 15 13 13 13 12 12 11 10 9 8 7 6 6 5 5 4 4 4 4 5 7 9 11 12 14 15 16 15 14 15 16 17 16 15 14
5 3 1 2 2 0 1 2 3 3 4 5 5 11 16 22 20 13 11 13 15 7 5 10 10 6 3 5 3 3 1 1 3 9 18 23 26 26 25 24 22 22 22 21 22 23 24 24 23 24 24 24 24 23 23 22 22 21 20 18 17 15 14 13 13 12 12 11 10 10 9 8 7 6 5 5 5 5 5 5 5 6 7 9 11 12 13 15 16 15 15 15 15 16 15 14 13
5 4 2 2 2 2 3 2 3 3 5 6 7 14 19 23 21 16 13 16 21 10 6 13 12 8 6 6 4 2 2 4 6 13 22 24 25 25 25 24 21 20 22 23 24 24 25 24 24 24 24 24 24 23 23 22 22 21 20 18 16 15 14 13 13 12 11 11 10 9 8 7 6 5 4 4 5 5 5 5 5 6 8 9 11 12 13 14 15 16 15 15 15 15 14 14 13
4 3 3 2 2 3 5 4 5 4 4 3 6 15 21 25 21 17 17 19 24 13 7 13 9 8 8 5 5 3 6 7 8 16 24 25 25 25 25 24 22 20 21 24 25 25 25 24 24 24 25 25 24 23 23 22 21 20 19 18 16 15 13 13 13 12 11 10 9 8 7 6 5 4 3 3 4 5 5 5 6 7 8 10 11 12 13 14 15 15 15 15 15 15 14 13 13
4 2 4 3 4 4 6 4 6 5 4 2 4 14 21 25 18 14 17 19 19 13 9 15 12 12 7 4 5 8 13 13 12 18 24 25 25 24 25 24 23 21 21 23 24 25 25 25 25 24 25 24 24 23 22 21 20 19 18 18 16 14 13 13 12 12 11 10 8 7 6 5 4 3 3 3 3 5 5 5 6 7 8 10 11 12 13 13 14 14 15 15 14 14 13 13 12
8 4 5 2 4 4 5 4 5 4 4 3 6 14 19 19 16 16 17 18 18 11 14 17 20 17 7 5 11 14 18 20 18 21 24 24 25 24 24 24 23 22 22 22 23 24 24 25 25 25 26 24 24 22 21 20 19 19 18 17 16 14 14 13 12 11 10 9 7 6 5 4 4 3 4 4 4 5 5 5 6 7 9 10 11 12 12 13 13 13 13 14 13 13 13 12 12
11 7 7 2 3 3 4 3 3 3 4 5 7 15 18 14 15 21 17 14 18 12 13 14 25 18 9 10 12 19 22 24 24 24 26 25 25 25 24 24 23 22 21 21 22 23 24 25 26 26 26 25 24 22 21 20 19 19 18 17 16 15 14 13 12 11 9 8 7 6 5 5 5 5 5 5 5 5 5 6 7 8 9 10 11 11 12 12 12 12 12 12 12 12 12 11 11
15 8 6 2 2 3 4 4 4 5 5 4 8 15 15 17 18 21 20 13 14 9 3 10 25 12 11 15 13 26 28 27 29 27 29 27 27 26 25 25 24 23 22 21 21 22 24 25 26 26 26 25 24 23 22 21 20 19 18 17 16 15 14 13 12 10 9 8 7 7 6 6 7 7 7 6 6 5 5 6 7 8 9 10 10 10 10 11 11 11 10 10 10 11 11 11 10
18 8 3 3 4 4 4 4 5 5 5 5 13 15 9 19 21 16 22 17 6 5 6 12 19 4 13 23 19 32 32 30 32 29 31 29 29 28 27 27 25 25 22 22 22 22 23 23 25 25 25 25 24 23 22 21 20 19 19 17 16 15 14 13 11 10 9 9 8 8 8 8 8 8 8 7 6 6 6 6 7 8 9 9 10 9 9 9 9 9 9 9 9 9 10 10 10
16 7 1 3 4 6 5 5 5 5 6 6 16 17 5 12 22 14 13 9 8 10 4 9 13 2 13 22 22 35 35 33 34 32 33 31 32 31 30 29 27 26 23 22 21 21 22 22 23 24 25 25 24 23 22 21 20 20 19 18 17 15 14 12 11 11 10 10 10 10 9 8 8 8 9 8 7 7 6 7 7 8 8 9 9 8 8 8 8 8 8 8 8 8 8 9 9
11 4 4 6 4 6 6 7 7 5 5 5 13 15 5 7 18 13 2 5 11 10 6 7 6 2 12 18 26 37 36 36 36 34 34 34 35 34 33 30 27 26 23 22 21 21 21 22 23 23 25 25 24 23 22 21 21 21 20 19 18 15 14 12 11 11 10 11 11 10 9 9 9 9 10 9 8 8 8 7 7 7 8 8 7 7 7 6 6 6 6 6 6 6 7 7 7
11 3 5 8 5 7 9 10 9 7 7 9 14 11 4 9 14 13 4 3 8 9 8 10 13 15 19 24 33 37 36 38 36 34 35 35 36 35 33 31 28 26 24 24 23 22 21 21 22 23 24 24 24 22 22 22 21 21 20 19 18 16 14 13 12 11 12 12 10 9 9 9 9 10 10 10 10 9 9 8 8 8 7 7 6 6 5 5 4 5 5 5 5 5 6 6 7
11 6 5 7 6 7 12 12 12 15 13 10 11 7 7 13 15 13 4 2 1 6 8 11 20 25 29 33 37 37 37 36 33 33 32 32 33 33 31 29 28 25 23 23 23 22 20 20 21 22 23 23 23 21 21 21 20 21 20 19 17 16 15 14 12 12 13 12 10 9 9 9 9 9 9 10 10 10 9 9 8 8 8 7 6 6 5 5 5 5 5 5 5 6 6 7 7
8 9 5 5 9 7 13 17 19 22 18 11 8 5 8 14 12 7 1 2 4 5 12 16 26 33 36 37 38 39 39 36 35 34 30 26 24 27 27 26 24 22 22 22 22 21 20 19 19 21 21 21 21 20 20 19 19 20 19 18 16 15 15 15 14 13 13 11 10 9 8 9 8 8 8 9 10 10 9 8 8 8 8 8 7 7 6 6 6 5 4 4 5 6 7 7 7
4 9 7 6 11 6 14 22 24 24 20 14 7 4 9 13 7 2 3 3 3 4 8 19 31 36 38 40 40 39 39 38 37 36 34 27 19 22 25 23 22 21 22 22 21 20 20 19 18 19 20 20 20 20 19 18 19 19 18 17 16 16 15 15 15 14 12 10 9 8 7 7 7 8 8 8 8 9 8 7 6 6 6 6 6 5 5 4 4 4 3 3 4 5 6 6 7
4 6 9 10 13 8 13 20 23 25 20 13 9 9 11 8 4 2 2 2 3 4 7 22 31 35 39 42 41 40 39 38 38 37 35 27 20 22 23 22 22 22 23 22 22 22 21 21 20 20 20 19 19 19 18 17 19 18 17 17 15 15 15 15 15 13 11 9 8 7 7 6 7 9 8 7 6 6 6 5 5 4 5 5 4 3 2 3 3 2 2 2 3 3 4 5 6
9 4 4 11 16 14 15 16 19 24 22 18 15 12 11 7 3 3 3 2 1 3 15 29 34 37 40 41 41 42 40 40 40 37 29 23 22 21 21 22 23 24 25 25 24 24 23 24 24 22 21 20 20 20 19 18 19 19 17 16 15 15 15 15 14 12 10 8 8 8 7 6 7 8 7 6 5 4 4 4 3 3 4 3 2 1 0 1 1 1 2 3 3 4 5 5 6
10 7 4 6 13 18 20 19 19 22 21 18 16 11 13 13 6 3 3 5 7 14 26 34 36 38 39 41 42 42 41 41 39 33 26 24 25 24 23 24 26 27 28 28 27 25 25 25 25 25 23 22 21 21 21 20 20 19 18 16 16 15 14 13 12 11 10 8 7 7 6 6 6 7 5 4 3 2 2 2 3 3 3 2 1 1 2 2 3 3 4 4 5 5 6 7 7
7 9 8 6 10 15 18 20 22 23 18 14 10 8 16 17 6 0 4 11 16 23 32 35 37 38 37 38 41 41 40 40 37 31 27 27 28 29 29 28 28 27 28 29 28 26 26 26 26 26 24 23 22 22 22 22 21 19 18 17 16 15 14 13 12 11 10 9 7 6 6 5 5 4 3 2 1 1 1 1 2 2 2 2 2 3 4 5 5 5 6 6 6 7 8 8 9
5 10 13 13 15 15 14 15 20 22 17 15 11 8 16 15 7 3 5 15 22 28 32 34 36 36 35 35 35 36 36 37 36 32 29 30 32 33 32 30 28 27 28 30 28 27 28 27 26 25 24 23 23 23 23 23 21 20 18 18 16 14 14 13 13 12 11 9 8 6 5 4 4 4 3 2 3 4 3 3 3 4 4 4 4 5 5 6 6 6 7 7 7 7 8 8 9
9 8 11 14 16 17 16 14 16 14 11 15 14 9 12 7 5 6 14 20 25 31 31 31 33 32 33 33 32 33 34 36 35 34 33 33 34 34 32 29 28 28 28 29 29 30 30 28 26 23 22 23 23 23 24 24 22 21 20 19 17 15 14 14 14 13 10 8 7 6 6 6 6 6 4 4 5 5 5 4 4 5 5 5 5 5 6 7 7 7 7 7 7 7 7 7 8
8 6 4 7 8 13 17 15 15 10 7 12 13 7 7 4 3 9 24 26 26 30 30 29 30 30 32 32 33 35 36 36 35 36 33 31 31 31 30 29 29 28 27 28 29 31 29 26 25 23 22 22 22 23 24 24 23 23 22 20 17 16 15 13 12 11 8 6 5 6 8 8 8 7 7 6 6 7 6 6 6 6 5 5 6 6 5 6 7 7 6 6 7 7 7 8 8
4 4 2 3 4 8 14 15 13 10 10 13 11 4 6 5 5 13 27 28 28 28 27 28 28 29 30 30 33 36 37 36 36 35 31 28 28 29 29 28 29 26 25 27 27 27 26 25 25 25 23 22 22 24 25 25 25 24 23 20 18 16 14 12 11 9 7 5 5 7 8 9 9 9 8 7 7 7 7 6 6 6 6 6 6 6 5 5 6 5 5 6 7 7 8 8 8
1 3 3 4 5 5 6 11 11 9 14 16 12 4 7 6 3 18 27 27 31 28 24 27 27 27 27 29 32 35 36 36 36 34 31 29 28 29 29 28 29 27 27 28 26 25 25 26 26 25 24 23 24 25 26 26 25 24 22 20 19 16 14 12 11 9 8 7 6 7 8 9 10 10 9 7 7 7 6 6 6 6 6 6 6 6 6 5 5 5 6 6 7 8 8 9 9
1 5 5 5 5 3 4 8 12 11 11 14 13 4 5 5 3 17 22 23 28 26 24 25 25 25 26 27 29 33 35 34 34 32 30 29 30 31 29 28 29 29 29 30 28 26 27 27 26 25 24 25 26 26 26 26 24 22 21 20 19 16 13 12 10 9 9 9 9 9 9 9 10 9 8 7 7 7 7 6 6 6 6 6 6 6 7 6 6 7 7 7 8 9 10 10 10
2 5 6 5 5 3 4 5 11 15 9 8 11 5 1 3 6 15 18 21 23 22 22 23 23 24 25 27 28 31 33 32 31 29 28 29 31 32 30 28 29 30 31 32 31 29 29 28 26 25 25 26 26 26 26 25 22 20 18 18 17 15 13 11 10 10 11 11 11 11 11 10 10 9 8 8 7 8 9 8 7 7 8 8 8 7 8 7 7 8 9 10 11 11 11 11 11
4 3 4 3 4 6 5 4 6 13 10 7 8 6 4 5 10 16 18 21 22 21 21 21 22 22 24 26 28 29 30 30 29 28 27 29 31 31 29 29 30 31 33 35 33 32 31 29 27 26 25 25 25 24 24 23 21 19 17 16 16 15 14 12 11 12 13 13 12 12 12 11 10 9 9 9 8 10 10 9 8 9 9 9 9 8 8 8 8 9 10 12 12 13 14 13 12
5 4 4 2 3 7 8 5 4 10 11 9 8 6 5 4 9 15 17 20 22 20 20 21 22 22 23 26 28 29 29 29 28 27 29 30 31 30 30 31 32 33 35 36 35 34 32 29 28 28 27 26 24 22 22 22 21 19 18 18 17 17 16 14 13 13 14 14 13 13 12 12 11 10 9 9 9 10 10 9 9 10 10 9 8 8 9 9 10 10 11 12 13 14 14 15 15
7 6 5 4 4 5 7 6 6 9 8 8 9 7 6 7 9 12 14 17 18 16 18 20 20 21 22 24 28 29 28 27 27 27 29 30 30 30 31 32 33 35 35 37 37 34 31 30 30 29 27 26 24 22 22 22 22 20 20 20 20 19 18 16 16 15 15 14 13 13 12 11 11 10 10 9 9 9 9 9 9 9 9 8 8 8 9 10 11 11 11 11 12 14 14 15 15
7 5 5 6 5 4 5 6 7 8 8 7 9 8 8 11 11 12 16 17 15 15 16 17 19 21 22 24 26 27 26 25 25 28 30 30 31 32 33 34 35 36 36 36 35 32 30 30 30 29 27 27 25 24 23 23 22 22 22 21 21 21 19 17 17 16 16 15 14 14 12 11 11 10 9 8 7 7 7 8 8 8 8 8 8 9 10 10 11 10 10 11 13 14 14 14 14
4 4 4 5 5 5 6 6 6 6 6 5 7 9 9 12 11 11 16 16 15 19 19 19 21 21 21 23 24 25 24 24 26 29 31 32 33 35 36 36 36 36 35 34 32 30 30 30 29 28 28 28 27 25 24 23 22 21 22 22 22 21 19 18 19 17 16 15 15 14 12 12 11 10 8 7 6 6 7 7 7 7 8 9 9 10 10 10 10 10 11 12 14 14 15 15 15
2 3 4 3 3 3 5 5 4 4 5 3 6 8 6 7 8 8 11 10 14 21 23 24 27 24 22 24 25 26 25 26 29 32 33 34 35 36 36 36 36 35 33 31 30 29 30 31 30 29 29 29 28 26 25 23 22 21 21 21 22 21 19 19 19 17 16 15 14 13 11 11 10 9 8 7 7 7 7 6 7 8 9 10 11 11 10 11 11 12 13 13 14 14 15 15 16
4 3 4 3 3 2 3 5 2 3 3 4 7 6 3 4 5 6 7 7 9 16 17 20 25 24 24 26 28 30 29 29 31 34 35 35 36 37 37 36 35 33 31 30 30 30 30 31 31 31 31 30 29 27 25 24 23 22 21 21 21 20 20 19 18 16 15 15 13 12 10 9 9 8 8 7 6 6 5 6 7 9 10 11 10 10 11 12 14 14 14 14 14 15 15 16 16
6 4 5 4 3 4 4 3 1 3 3 5 9 5 1 5 7 5 5 7 8 11 13 15 19 19 20 23 26 29 31 31 33 35 36 37 38 38 37 36 34 32 30 30 30 30 30 31 32 32 31 30 28 27 25 24 23 23 22 21 20 20 19 19 18 17 16 15 13 12 10 9 9 8 7 6 4 4 6 7 8 10 11 11 11 12 13 14 15 16 16 16 16 17 17 16 16
5 4 6 6 4 4 4 3 2 4 0 2 7 5 1 3 8 4 3 7 8 9 11 14 17 18 19 23 25 28 30 31 33 35 37 38 39 38 37 36 34 32 32 31 31 30 30 30 31 31 31 29 27 26 25 24 23 23 22 22 22 22 21 19 18 18 16 14 13 12 11 10 9 9 7 6 6 7 8 9 10 11 12 12 13 14 15 15 16 17 17 17 17 17 17 16 15
4 5 8 7 5 3 3 2 2 4 4 5 3 5 2 2 4 3 4 8 9 9 11 13 18 20 22 25 27 29 30 32 33 33 35 37 38 39 39 37 35 33 32 31 31 31 30 29 30 30 30 28 27 27 26 25 23 22 22 22 23 23 22 20 18 17 16 14 13 13 12 11 10 9 8 7 8 8 9 10 11 12 13 14 14 14 15 16 16 17 17 17 16 15 13 12 11
3 6 10 9 6 4 3 1 1 2 2 4 2 5 4 3 5 5 6 10 10 10 11 13 19 22 24 26 28 29 31 34 34 34 35 37 39 40 39 37 35 34 33 32 31 31 29 29 28 28 28 27 26 26 25 23 22 22 22 22 22 21 21 20 18 17 15 14 14 13 12 11 10 9 8 9 9 9 10 12 12 13 14 14 14 14 15 16 16 17 16 15 14 12 11 10 10
4 7 10 9 8 6 5 3 2 0 3 4 4 5 4 3 4 5 4 7 10 12 13 15 18 24 25 27 29 29 31 33 35 35 36 36 37 38 37 36 34 34 33 32 31 30 29 27 26 26 25 23 22 22 21 20 21 21 21 21 21 21 20 19 18 16 15 14 14 13 12 11 10 9 9 10 10 12 13 13 13 13 13 13 13 13 14 14 14 14 13 12 12 11 11 11 11
4 7 7 5 5 5 5 4 2 2 1 5 7 5 4 3 2 6 3 3 9 12 13 13 16 24 27 27 30 30 30 32 33 35 35 34 35 35 35 34 34 34 32 31 29 28 28 26 25 25 23 20 19 19 19 18 19 19 20 21 21 21 21 20 19 17 16 16 15 14 13 12 11 11 11 12 13 14 14 13 12 12 11 11 11 12 12 12 11 11 11 11 11 11 11 12 12
4 6 5 3 3 2 2 2 3 3 4 8 8 8 6 2 4 7 6 9 15 14 11 11 15 24 29 30 31 31 31 31 32 33 32 32 32 32 33 33 33 33 31 29 28 27 26 25 24 23 21 19 19 20 19 18 17 17 18 19 20 21 21 20 20 19 18 17 16 15 14 13 12 13 13 13 14 14 13 12 10 9 9 9 9 9 9 9 10 10 10 10 10 11 11 11 11
5 5 4 3 2 3 4 4 3 3 7 7 7 9 7 5 4 6 9 15 18 16 14 15 18 24 31 32 32 32 33 32 31 32 31 31 31 30 31 31 32 32 30 28 28 26 24 23 22 21 20 20 20 21 20 19 19 18 18 18 19 20 20 20 19 19 18 17 16 16 15 14 13 13 13 13 13 12 10 9 8 7 7 7 7 7 8 8 9 9 9 9 9 10 10 10 10
5 5 6 4 1 0 1 1 1 4 7 4 7 9 5 5 5 12 17 17 16 19 20 21 23 27 31 32 31 31 33 32 30 31 32 31 30 30 30 30 30 30 28 28 27 24 23 22 21 21 21 21 21 21 20 20 20 19 19 18 19 19 20 19 19 18 17 16 15 14 13 13 13 13 13 12 10 8 7 6 5 5 5 5 6 6 7 7 7 7 8 8 8 9 9 9 10
7 6 6 6 4 4 5 5 2 4 5 2 5 7 3 3 4 15 23 21 23 24 21 22 26 29 30 31 31 29 31 33 31 30 31 31 30 29 29 29 29 29 28 27 26 24 23 22 22 21 21 21 21 21 20 20 20 20 19 19 20 20 20 19 17 16 16 15 14 13 13 14 13 12 11 8 6 5 4 3 3 3 4 5 5 5 5 6 6 7 7 8 8 8 8 9 10
6 5 6 6 5 5 6 5 3 4 4 2 2 4 4 3 3 13 23 25 24 18 12 17 23 24 25 27 28 28 30 33 31 29 29 30 30 29 29 29 29 28 27 26 25 24 23 22 20 20 21 22 21 21 21 21 21 20 19 19 20 20 19 18 17 16 15 15 14 14 14 13 12 11 8 5 4 3 2 1 1 2 3 4 4 4 5 5 6 7 7 7 8 8 8 9 10
4 4 5 5 6 5 2 3 5 4 2 1 2 3 4 4 3 6 14 17 12 11 12 18 21 21 23 25 27 29 31 32 32 30 29 29 29 29 30 30 28 27 26 25 24 23 24 23 21 20 21 22 22 22 23 23 22 21 20 20 20 20 19 18 17 17 16 15 14 14 13 12 11 9 6 4 3 2 1 0 1 2 3 4 4 5 5 5 6 6 6 7 7 7 8 9 9
3 4 5 5 5 5 1 2 1 3 3 3 2 2 2 0 4 4 8 12 8 10 12 16 21 24 25 25 27 30 32 32 32 31 30 31 30 29 30 29 28 28 27 25 25 24 24 25 23 22 22 22 22 23 23 23 22 22 22 22 21 20 19 18 17 16 16 14 14 13 12 12 11 8 5 4 3 2 1 0 1 3 3 4 4 5 5 5 5 5 6 6 7 8 8 8 9
5 6 7 3 4 2 1 2 1 3 3 4 1 4 2 2 1 2 8 13 9 10 11 13 18 23 23 24 28 31 32 31 31 30 30 33 33 31 31 30 29 28 27 26 26 25 24 23 24 24 23 23 23 23 22 22 22 22 23 23 21 20 19 17 16 15 14 14 13 14 14 13 11 7 4 4 3 2 1 1 2 3 3 4 4 4 4 4 4 5 5 6 8 8 8 7 8
6 5 6 5 4 3 1 2 2 1 3 3 2 2 3 4 4 4 10 14 13 12 11 11 15 21 23 24 28 31 31 29 28 30 31 33 35 34 31 30 29 28 28 27 27 24 22 22 22 22 23 23 22 21 20 20 21 22 22 21 20 19 18 17 16 15 14 13 14 15 15 13 10 6 4 3 2 2 1 1 2 2 2 3 3 3 3 3 4 4 5 6 8 7 6 7 9
3 4 6 5 4 4 2 3 3 2 3 2 1 1 2 5 6 12 16 16 16 15 14 12 15 23 26 27 29 31 33 32 30 32 34 34 36 35 32 30 30 31 30 28 26 23 22 22 22 22 22 21 20 20 20 20 21 21 21 21 20 18 17 17 16 15 14 14 15 16 15 13 9 6 5 3 3 3 3 2 1 1 2 2 3 2 2 2 3 3 4 6 8 6 6 8 10
4 4 6 6 4 3 2 1 2 3 2 2 2 1 4 6 5 13 18 18 18 19 18 15 18 26 28 28 32 32 33 35 32 32 35 35 34 33 32 31 32 33 32 28 25 24 24 24 24 22 21 21 20 21 21 21 21 21 21 20 19 19 17 17 16 15 16 17 17 16 15 12 9 7 5 5 5 4 3 2 0 0 1 2 2 2 2 2 3 3 5 7 7 6 7 9 10
7 5 5 6 6 4 3 2 1 2 2 3 4 2 6 6 5 11 16 17 19 21 19 16 21 30 30 29 34 33 33 37 35 32 35 37 35 34 34 34 34 34 32 28 27 26 26 26 24 22 21 21 21 22 22 22 22 21 20 20 19 19 18 18 18 18 18 18 18 16 14 10 9 8 7 7 6 4 3 2 1 1 2 2 2 2 2 2 3 4 5 7 7 7 7 9 9
Wind_Direction
301 308 318 322 335 336 341 4 2 348 47 8 296 299 284 154 328 312 321 350 354 329 359 33 98 119 132 217 208 208 108 148 167 143 188 195 150 167 167 166 168 165 160 158 159 155 151 151 151 151 150 152 155 156 157 155 153 152 146 143 140 141 142 143 143 141 140 136 134 131 128 124 120 121 120 116 108 96 82 72 61 50 45 65 87 94 105 112 116 120 123 125 124 124 124 123 121
295 302 314 317 333 339 333 26 36 328 31 335 287 248 272 7 343 300 296 338 307 324 31 54 83 69 10 182 175 84 108 100 185 151 138 150 154 161 161 163 167 163 159 158 157 152 150 151 151 151 151 154 156 157 157 156 154 153 149 145 143 143 143 144 145 143 140 137 135 131 128 123 121 121 119 114 108 98 84 73 59 43 40 60 84 95 106 115 119 122 126 125 123 126 126 124 121
292 297 309 316 332 345 352 43 61 67 50 279 275 252 286 328 282 273 263 268 285 289 31 14 42 60 12 80 131 114 180 270 232 149 135 155 158 155 158 163 163 160 159 157 155 151 150 151 152 152 152 155 156 157 157 157 155 154 151 147 147 145 145 146 146 145 142 140 137 132 128 123 122 121 117 114 107 99 89 82 71 37 40 60 85 97 108 119 124 126 128 126 126 128 127 123 122
289 298 310 325 340 355 51 58 125 126 137 254 277 267 261 278 265 268 274 280 277 269 294 304 288 228 260 233 244 292 216 250 218 175 151 160 160 153 156 161 159 160 158 156 155 151 151 153 154 153 153 156 156 157 157 157 157 155 153 151 150 148 148 150 149 147 144 142 138 133 127 124 123 119 116 113 107 98 92 92 88 40 43 67 91 101 110 121 129 131 130 130 131 131 128 125 123
283 296 306 325 344 31 89 73 111 124 185 213 269 268 243 256 271 276 284 292 276 252 277 270 263 225 185 160 212 293 241 224 199 189 162 161 161 153 157 161 161 162 160 158 155 152 154 156 156 154 154 157 157 157 157 158 158 157 156 154 152 151 152 154 153 149 146 142 137 131 125 123 119 115 112 109 104 93 88 85 80 47 48 77 99 105 112 122 132 134 134 134 135 133 130 127 124
278 291 300 319 22 139 115 158 186 203 213 189 233 268 263 263 276 279 288 298 293 267 269 255 238 190 129 100 52 70 158 287 206 190 174 162 159 155 158 163 163 163 162 158 155 155 157 160 159 156 156 158 158 157 158 159 160 160 158 158 155 154 155 157 156 151 147 142 136 129 123 119 113 107 103 100 95 80 75 66 55 51 61 91 106 110 115 123 133 136 137 137 137 136 132 130 126
268 275 286 119 101 109 123 184 204 228 229 184 213 266 268 275 281 285 293 301 305 310 264 258 227 178 99 147 88 81 157 308 250 189 179 163 158 156 161 165 165 163 160 158 157 158 160 161 160 158 158 158 158 157 159 161 162 163 161 160 158 157 158 159 157 153 148 141 135 128 121 116 108 99 93 87 79 66 59 52 50 64 78 99 109 114 117 124 133 137 139 139 140 140 136 133 128
246 241 204 138 110 32 116 177 212 216 241 219 230 262 261 276 281 285 291 284 294 305 242 259 219 195 203 171 121 85 166 311 263 185 171 160 157 159 164 167 166 162 158 159 160 162 163 161 161 160 159 159 160 159 160 162 163 165 164 163 161 160 160 159 157 152 146 141 134 125 120 114 105 93 86 76 65 59 57 60 65 75 87 104 114 116 119 125 133 137 141 143 144 144 141 136 130
220 206 170 145 177 342 157 190 239 231 255 256 244 259 263 272 277 275 279 275 278 274 233 241 210 206 185 135 98 113 146 227 203 169 161 158 159 161 165 169 169 163 160 163 163 165 165 162 161 161 160 160 160 161 161 162 165 167 166 165 163 162 161 158 155 149 143 137 131 125 120 112 103 91 80 71 59 60 68 74 76 84 96 110 118 118 121 126 133 138 142 146 147 147 144 138 134
197 186 172 115 154 219 254 241 238 249 245 245 243 254 265 271 274 272 268 274 273 270 240 231 203 190 154 111 67 99 167 200 198 157 156 157 157 162 164 168 171 167 165 165 165 167 166 163 162 161 161 161 162 163 162 163 166 168 167 166 165 163 161 156 152 146 140 135 129 125 121 113 105 94 84 73 65 71 80 84 85 92 106 118 121 120 123 127 134 140 144 150 151 151 147 141 140
177 166 153 132 183 210 236 242 228 246 257 272 271 256 264 268 272 274 269 270 272 278 215 200 191 158 123 76 64 115 168 190 204 159 153 155 156 162 163 165 170 171 170 166 166 168 168 165 163 162 162 162 164 164 163 165 167 168 168 167 166 164 159 154 150 145 139 133 129 127 124 118 109 102 95 82 77 86 91 92 94 101 114 123 124 123 126 127 134 141 147 153 154 154 151 148 149
181 149 126 165 204 206 214 232 232 242 274 313 274 257 263 266 268 269 269 273 279 292 231 204 189 160 118 45 111 145 162 168 189 163 152 154 157 162 163 166 169 171 170 169 168 169 169 166 164 163 163 164 164 164 163 165 165 167 167 167 166 162 157 153 150 146 141 135 134 132 126 118 109 108 103 96 92 98 102 102 104 110 121 128 128 126 128 128 133 140 148 154 157 158 156 156 157
188 156 121 178 204 188 196 217 244 241 272 242 223 258 267 263 260 261 273 283 283 296 280 242 186 160 116 110 142 155 162 165 172 159 153 155 159 163 166 168 168 169 170 170 169 169 169 167 165 164 164 165 165 163 163 164 165 166 168 168 165 160 157 154 152 148 144 138 136 132 123 115 110 115 113 115 111 111 111 109 111 117 127 131 130 128 128 128 131 137 144 153 158 161 162 164 166
193 176 151 201 218 172 183 204 242 224 255 240 224 259 267 261 262 270 275 279 284 291 298 247 175 150 115 127 148 164 165 167 164 156 156 157 161 164 168 168 165 166 166 168 168 169 170 168 167 165 165 165 165 163 163 165 166 167 168 168 164 160 158 156 154 150 145 138 132 125 117 114 110 115 120 124 119 116 115 111 115 121 129 132 130 129 130 130 130 134 139 149 158 164 169 173 177
198 182 144 161 192 188 210 204 196 208 244 244 243 261 266 271 271 276 272 259 286 282 265 190 171 156 155 161 174 177 170 166 161 156 158 159 164 166 168 166 163 163 162 165 167 169 171 169 168 167 167 165 165 165 166 168 168 169 169 167 163 162 161 157 154 148 143 137 131 123 113 109 108 116 121 121 115 112 114 112 116 123 130 131 132 131 131 133 133 135 137 143 154 166 175 181 185
201 188 102 173 195 207 217 197 177 202 246 245 250 261 273 281 275 280 282 266 256 170 151 167 176 180 176 178 182 178 171 164 160 158 160 161 165 166 167 165 162 162 162 165 166 169 171 171 170 168 168 166 167 168 169 169 169 170 168 165 164 163 162 157 152 147 144 138 131 121 112 107 108 117 118 113 110 113 116 113 116 123 129 131 133 134 133 135 137 139 141 143 150 162 175 185 192
199 197 179 196 193 206 197 181 183 195 236 249 255 259 250 282 284 292 292 259 160 142 128 166 188 235 177 182 178 172 169 164 162 161 162 163 166 167 166 165 163 162 163 166 166 169 171 171 171 169 168 167 169 171 171 171 170 170 168 166 166 164 161 156 153 149 146 138 130 123 114 108 107 114 114 112 112 114 117 115 116 122 129 133 133 135 135 136 140 144 147 148 150 155 168 181 191
188 185 201 207 185 194 183 183 190 175 209 235 246 252 224 266 292 300 311 129 126 114 84 133 166 141 164 173 168 167 166 164 164 165 165 165 168 166 164 164 163 163 165 168 169 171 172 171 171 169 169 169 173 174 173 173 172 170 170 170 168 164 161 157 155 150 143 136 133 128 119 112 109 114 116 114 113 111 112 112 115 122 131 135 137 137 138 140 143 147 150 152 154 157 164 171 180
194 150 191 214 184 186 189 188 188 175 203 227 235 244 263 268 293 311 310 134 125 101 76 99 104 108 136 150 155 159 161 163 167 168 168 168 168 166 164 164 164 166 167 171 172 170 170 170 170 171 171 173 177 177 175 177 174 171 173 173 169 165 161 156 155 150 141 138 137 134 128 124 118 121 122 117 114 110 110 112 115 122 131 138 142 141 140 142 143 149 153 155 158 164 170 170 172
209 191 205 220 182 198 205 198 202 207 215 224 237 257 291 279 295 316 310 139 142 138 132 117 112 118 130 141 149 154 157 159 162 164 165 165 166 166 164 164 167 167 168 173 172 167 166 168 171 173 175 177 179 180 179 179 174 173 176 174 170 166 160 156 154 150 145 142 143 139 138 139 131 128 130 124 117 113 112 115 119 123 129 136 144 147 149 152 153 160 166 173 172 177 183 184 185
203 203 210 198 177 206 217 211 216 220 225 229 248 284 298 289 298 319 117 119 310 211 175 148 136 136 139 146 152 156 157 157 160 161 158 156 161 167 168 167 167 166 169 173 171 165 163 167 173 174 177 180 180 183 181 177 174 175 178 175 171 167 161 158 155 154 153 151 151 149 148 153 151 141 135 128 121 115 111 112 121 126 131 136 142 149 156 163 168 173 176 183 185 189 195 197 203
200 218 215 188 177 198 224 218 221 227 232 240 255 271 279 289 302 23 123 196 264 254 196 160 152 152 152 154 154 154 156 158 161 161 156 154 161 170 172 172 169 169 173 174 170 166 164 167 173 175 178 180 182 185 180 177 179 180 181 178 173 169 166 161 158 159 161 157 159 162 163 168 169 157 143 133 124 118 115 114 119 124 132 137 140 144 153 168 179 186 190 193 191 199 210 220 231
237 239 214 203 190 198 227 221 225 232 236 240 244 252 261 277 312 20 81 203 266 303 197 166 157 158 157 155 154 154 156 158 160 160 157 157 168 176 178 178 176 175 176 176 172 168 167 168 173 177 178 178 181 184 182 183 185 184 183 181 176 173 169 164 161 162 165 165 169 175 178 183 173 159 148 143 134 127 128 129 128 126 135 136 137 137 148 164 170 188 213 226 224 232 244 252 259
232 253 213 209 207 214 229 227 227 231 233 238 239 250 254 243 264 300 21 48 283 182 164 159 154 156 156 155 156 158 161 164 165 165 163 166 176 182 183 182 181 181 180 178 175 171 172 174 175 178 176 176 179 181 184 188 186 184 183 180 177 175 171 166 164 165 171 179 184 187 191 196 173 153 143 145 141 134 138 148 151 151 153 147 146 146 189 179 191 248 274 274 274 282 283 283 284
232 233 238 215 219 226 234 239 240 236 237 238 236 241 248 249 259 291 62 101 147 154 154 154 155 157 156 157 159 162 165 166 166 165 170 180 181 181 181 180 181 183 182 180 177 176 179 179 178 177 174 174 177 180 185 187 185 182 181 178 176 175 170 169 173 176 184 192 195 198 202 197 172 154 145 145 141 143 154 171 182 186 181 176 215 285 305 307 309 302 301 296 292 290 288 289 289
229 218 234 241 237 236 236 241 244 246 247 232 222 238 253 256 255 24 118 141 152 154 155 156 158 158 158 159 162 165 167 167 167 167 178 187 182 180 179 177 180 179 180 180 177 180 182 183 181 176 172 173 176 180 185 185 184 183 178 176 175 174 173 176 183 188 195 200 201 210 215 199 179 178 167 158 207 246 237 235 234 240 243 268 295 305 311 307 302 299 299 298 299 300 299 298 294
248 211 220 237 246 248 245 243 245 250 253 230 204 227 250 242 214 194 157 157 156 154 154 158 161 158 158 159 161 164 167 172 173 175 185 188 182 181 180 178 178 174 177 180 178 181 184 184 181 174 172 175 176 179 182 183 183 182 177 175 176 176 181 186 190 196 201 207 209 217 226 218 218 232 215 211 264 272 275 286 286 280 277 282 295 302 300 294 291 291 292 294 300 303 302 297 292
273 233 217 235 241 250 251 247 250 249 255 234 201 218 248 218 198 195 167 164 160 155 153 158 159 156 157 158 161 165 170 177 179 181 187 188 183 182 180 178 175 173 179 181 180 183 183 182 178 174 177 177 175 178 181 182 183 180 177 177 178 181 188 193 197 201 204 209 217 226 239 240 241 247 241 244 261 266 268 267 264 263 267 271 276 279 276 280 283 284 286 291 298 301 300 295 292
275 261 225 244 236 245 241 236 246 233 247 239 198 220 254 182 226 174 161 164 159 155 154 156 156 155 159 161 164 169 174 179 180 183 187 188 186 183 180 177 174 176 182 184 184 184 180 178 177 180 184 180 177 181 182 182 183 181 179 179 181 184 190 196 202 205 205 211 227 243 248 243 239 242 245 249 252 254 254 248 244 242 246 247 243 246 255 269 275 277 281 289 297 300 299 296 295
263 237 187 238 239 246 229 222 233 221 241 232 185 222 256 235 255 157 159 165 156 154 156 157 157 157 162 165 169 172 175 178 182 186 188 188 186 185 184 179 176 179 184 187 189 185 179 178 183 187 186 182 181 184 184 183 185 185 183 183 185 188 191 198 207 208 210 222 240 247 241 232 229 234 238 244 246 246 244 239 232 229 235 241 243 250 254 260 266 268 274 284 293 295 293 290 290
209 202 185 191 215 250 216 201 202 211 241 218 182 233 251 265 248 157 162 167 159 155 157 160 160 161 164 169 172 174 175 178 183 187 187 187 187 189 189 182 180 182 187 192 191 187 184 185 188 189 184 181 184 185 186 186 188 190 188 187 191 195 197 202 209 210 217 230 239 239 231 224 226 229 231 236 240 235 229 228 226 227 235 245 255 257 252 257 263 265 275 286 292 291 291 292 295
170 194 210 195 204 273 263 203 186 202 234 199 182 226 251 268 207 162 164 169 164 156 156 162 161 162 165 170 175 176 178 180 184 188 188 190 192 192 191 188 185 185 190 194 193 190 189 189 188 185 182 181 182 185 188 188 190 191 190 191 195 199 203 205 208 211 224 235 239 241 237 232 230 230 229 229 229 222 217 221 224 228 237 248 254 251 250 260 269 277 287 294 294 295 299 302 305
249 198 203 196 185 225 265 234 197 199 207 190 192 193 216 242 172 164 167 168 165 154 157 162 159 161 165 170 176 177 181 184 186 189 191 195 196 193 192 192 190 190 193 194 195 194 192 192 186 182 183 181 181 184 188 189 190 190 190 193 198 202 205 208 212 219 232 238 242 246 243 238 235 232 227 224 222 217 216 220 223 229 238 248 252 253 258 265 275 287 297 300 300 304 311 315 317
237 189 184 211 167 175 222 261 220 194 193 209 201 182 207 212 160 164 171 168 166 160 160 161 157 160 164 169 176 179 185 188 187 190 195 198 196 193 192 192 193 194 195 194 196 196 195 192 186 183 185 183 185 186 187 188 189 191 192 198 204 208 211 214 222 228 235 240 242 244 242 238 234 230 224 220 219 216 216 223 229 235 243 252 259 265 270 277 287 298 304 304 305 310 317 322 324
184 157 162 210 159 181 205 227 223 179 187 205 189 188 211 188 151 162 174 172 170 168 162 160 159 159 162 169 176 183 189 191 191 191 195 197 194 192 192 192 193 195 195 195 196 196 195 192 186 186 188 189 191 190 189 189 190 193 196 202 208 212 216 220 227 231 233 236 238 237 235 233 232 228 222 216 217 217 219 228 236 243 250 259 267 274 281 294 302 306 306 305 308 314 320 324 326
150 154 149 168 170 211 213 219 223 169 173 201 183 184 177 158 159 165 175 175 170 168 159 157 160 161 164 171 178 185 189 193 195 193 193 194 191 190 190 191 193 195 195 196 195 194 194 193 190 191 192 194 196 195 193 193 194 198 202 206 208 212 217 222 226 227 227 229 229 226 226 229 230 227 222 218 220 222 226 235 241 248 256 263 270 278 290 301 302 301 301 304 311 316 320 322 322
137 143 147 167 179 229 230 224 225 164 160 204 183 168 162 165 173 169 169 170 169 165 158 159 164 166 170 174 180 185 188 191 193 191 192 192 190 189 189 191 194 194 195 195 195 194 194 193 193 193 194 197 200 200 200 201 202 204 207 208 209 212 217 222 223 221 219 221 220 220 222 225 226 224 225 226 225 227 233 241 246 251 261 270 276 285 294 298 297 300 304 309 313 315 318 320 319
119 131 148 167 186 224 236 224 224 174 166 203 170 155 168 174 175 169 163 164 173 171 164 165 169 172 175 176 179 182 184 187 188 189 192 192 191 190 190 192 195 195 194 195 198 199 197 196 195 195 197 199 203 206 207 208 209 209 208 208 209 212 215 218 218 215 213 216 218 220 221 222 222 222 226 228 227 231 234 239 249 260 272 278 284 290 296 300 301 305 308 313 316 318 321 319 317
173 145 133 160 209 233 259 254 238 184 175 198 163 154 167 170 159 159 165 171 180 177 173 172 173 174 177 177 177 178 181 184 187 189 191 192 192 191 192 193 195 194 194 198 203 204 202 200 199 198 200 203 205 208 211 212 212 210 209 209 209 209 210 212 212 209 210 216 219 219 220 221 222 224 226 228 230 232 236 246 262 278 286 291 294 296 300 303 303 305 309 316 321 323 323 318 316
207 160 141 196 231 167 224 265 248 155 147 151 145 137 129 121 119 140 165 168 171 178 180 178 177 177 179 180 179 179 181 184 187 190 192 193 192 192 193 193 194 194 197 201 202 202 202 201 200 200 202 205 207 208 211 213 212 209 209 210 210 207 206 206 206 206 210 215 216 214 216 217 221 227 229 230 234 242 259 275 284 292 295 295 295 295 298 300 302 308 314 320 324 323 320 316 314
214 176 161 196 223 178 206 258 191 101 68 122 119 98 69 142 147 151 147 143 153 173 179 180 185 185 182 182 182 183 185 186 186 190 193 193 192 193 193 193 194 195 198 201 201 200 199 199 199 201 203 206 209 210 210 212 211 208 207 207 206 203 201 202 204 203 206 210 211 210 208 209 216 224 228 234 251 273 285 291 294 298 298 295 295 297 299 301 305 312 317 320 322 319 317 316 313
225 202 182 186 184 204 260 318 103 108 19 190 124 109 284 173 164 164 132 141 152 170 179 185 188 186 184 185 188 189 190 189 188 190 192 191 191 192 193 194 195 196 199 201 200 200 199 199 200 203 206 209 211 211 210 209 208 206 206 203 201 197 194 197 203 203 203 203 206 210 208 207 214 222 233 251 271 282 289 296 300 303 303 301 302 303 303 305 310 316 320 321 319 316 316 316 316
227 215 187 187 183 207 268 339 106 153 214 247 160 142 188 233 190 186 160 155 163 178 189 195 193 190 189 189 192 194 192 190 188 190 192 191 191 193 194 195 196 197 199 200 201 201 201 202 205 207 209 211 211 211 210 205 202 204 205 203 202 199 193 192 199 202 202 201 204 210 212 214 220 229 244 261 272 281 291 298 302 304 304 304 306 306 308 312 317 320 322 322 322 321 320 321 324
226 215 171 175 193 201 215 197 145 188 236 295 247 137 131 216 203 193 187 176 177 188 198 200 198 195 193 193 196 195 193 191 188 189 192 192 193 194 194 195 196 198 199 200 200 201 203 205 208 211 213 212 210 211 210 201 198 202 203 201 202 203 200 196 196 199 201 204 208 212 218 224 230 237 250 264 274 285 292 295 298 299 300 301 305 310 314 318 322 324 326 328 330 331 332 334 334
215 195 160 172 189 187 195 218 254 222 40 313 258 137 133 240 201 162 193 196 182 190 205 206 198 195 192 195 198 195 192 191 189 189 192 194 196 196 195 195 196 198 200 201 201 202 205 207 209 213 213 211 210 212 211 203 202 202 199 200 201 202 204 201 197 200 202 205 210 216 222 228 237 246 259 272 281 288 292 294 296 296 297 302 308 315 319 323 326 329 331 333 334 335 336 338 338
191 154 139 147 160 168 183 193 196 81 52 249 232 165 155 274 222 163 168 212 194 198 209 206 195 193 193 195 197 194 191 190 190 190 192 194 197 197 196 195 196 199 201 201 202 204 207 209 210 211 210 208 209 212 211 208 207 203 198 201 202 202 204 203 200 201 202 203 209 218 226 233 244 257 268 278 285 291 294 295 297 299 302 308 315 320 323 327 331 333 333 333 335 336 338 342 345
150 122 122 90 75 81 102 123 97 89 254 239 207 175 169 214 223 184 176 196 198 199 202 197 192 193 193 195 196 193 190 189 189 191 192 195 198 197 197 197 197 200 201 201 204 206 207 208 209 208 208 205 205 207 205 204 205 204 201 204 209 209 209 208 205 202 202 205 212 223 233 241 252 265 274 282 288 293 296 298 301 305 308 314 322 327 329 332 332 331 331 334 338 342 347 352 354
151 122 137 108 356 8 32 16 57 161 244 242 178 162 172 206 215 190 207 212 200 195 196 192 190 190 189 192 194 192 189 188 188 190 193 196 197 197 199 199 199 200 201 201 204 206 205 206 205 204 204 202 202 202 199 198 201 204 204 207 213 216 216 214 210 206 206 211 219 228 238 248 261 272 280 286 289 292 297 302 306 308 312 321 329 332 332 330 328 329 331 336 343 348 353 354 354
167 132 135 141 187 81 118 253 185 214 243 237 162 152 172 230 201 181 205 219 206 200 202 193 186 185 186 189 191 190 187 186 185 187 194 197 194 196 199 199 200 200 200 201 202 202 203 204 202 201 203 200 198 198 197 199 201 202 204 207 212 216 218 216 213 210 212 217 226 234 245 257 267 275 282 286 288 293 299 302 305 309 318 329 333 333 329 324 325 330 334 339 345 350 353 353 357
180 162 156 164 162 158 194 212 227 244 256 256 157 151 187 267 207 185 196 211 209 205 204 193 185 183 184 187 188 186 185 187 186 184 190 195 193 194 198 199 200 200 200 202 200 198 200 203 202 202 203 199 196 197 197 200 202 201 204 208 213 215 216 214 213 216 221 227 234 243 254 263 270 277 283 287 288 291 293 291 304 315 324 330 330 330 326 326 331 335 339 343 349 357 360 0 4
184 154 137 165 177 169 189 199 202 229 258 291 118 145 189 196 222 203 198 204 205 197 184 177 181 182 181 183 185 184 185 188 189 186 186 191 193 194 198 200 201 201 201 202 199 197 199 202 203 201 201 198 195 196 198 201 203 203 205 210 214 217 216 214 214 219 227 235 242 250 258 266 274 282 286 289 283 270 264 267 301 318 325 328 333 336 334 336 339 340 346 351 357 7 8 8 12
192 124 125 187 187 150 147 175 176 180 207 264 151 189 217 186 283 246 197 194 182 149 143 154 167 178 177 178 182 185 187 188 189 186 184 188 193 196 198 198 200 200 199 197 197 197 198 201 201 200 204 202 198 198 200 202 205 205 205 210 214 217 216 216 217 221 229 236 243 251 260 269 279 289 289 275 258 239 230 255 321 332 336 333 337 340 336 338 342 347 356 358 8 18 12 13 18
169 153 170 196 160 126 119 211 182 110 154 244 190 188 292 253 330 332 165 166 141 130 144 152 164 174 175 177 181 184 187 189 188 185 186 191 194 194 196 196 198 197 195 195 197 196 197 201 202 201 205 203 198 200 201 203 206 205 205 209 214 217 218 220 223 226 231 234 242 253 263 271 282 290 274 240 227 208 182 25 346 334 333 334 336 335 334 339 346 354 3 9 21 24 14 15 21
148 194 192 128 108 115 93 188 332 67 158 266 208 167 208 167 264 332 150 159 158 153 155 158 167 173 175 179 182 185 187 187 186 186 188 193 194 193 193 194 196 195 194 195 193 191 194 203 205 204 204 201 197 199 201 203 205 205 205 208 213 216 218 222 225 229 233 236 247 260 267 274 282 278 243 212 201 186 171 325 318 321 325 331 335 338 341 348 355 3 9 21 31 25 13 21 32
156 181 177 132 149 201 96 154 189 116 184 276 325 181 204 181 188 178 165 173 173 163 161 165 169 174 178 179 180 184 186 185 186 187 189 190 191 193 193 194 195 194 192 192 189 190 196 203 206 206 204 200 198 200 202 204 206 207 210 211 213 215 218 223 227 230 232 238 253 263 266 273 275 255 217 194 187 199 228 259 282 309 326 338 351 1 4 1 3 9 16 32 41 33 22 38 47
133 131 167 165 168 183 166 157 164 159 193 236 320 351 245 228 196 175 178 182 174 167 172 176 175 178 180 179 178 179 181 183 184 186 188 186 186 192 196 195 195 191 188 190 192 196 200 202 205 206 202 199 200 201 203 207 208 210 213 212 212 215 218 223 227 230 234 243 255 259 264 271 262 232 205 189 193 211 221 225 254 318 345 18 32 36 26 17 14 22 36 50 55 49 41 51 53
159 154 176 182 176 152 146 170 142 134 163 194 172 243 261 254 203 183 183 178 174 177 178 178 178 179 181 180 178 177 178 180 181 181 185 185 185 191 194 194 192 187 186 191 196 198 199 199 199 200 199 199 200 199 202 206 208 210 212 213 214 216 218 223 227 232 239 247 251 255 262 261 238 214 199 189 196 201 203 206 218 41 60 67 70 78 69 48 38 40 56 66 68 63 55 58 56
158 178 192 186 176 135 134 219 242 119 159 189 156 190 262 257 199 195 190 178 179 181 175 174 179 179 180 180 179 179 178 180 183 181 179 183 186 188 189 190 191 186 184 191 196 196 198 198 196 198 203 205 207 206 207 209 211 213 215 217 219 220 222 226 231 237 242 245 249 254 254 237 214 202 189 181 185 186 183 177 148 123 118 119 119 117 95 69 47 42 61 73 74 68 60 58 54